Вернуться в каталог

DMSP 5D-2 F13 DEB

АктивенSSO
NORAD 40610·DEBRIS·🇺🇸 United States

Запущен Mar 24, 1995 с Vandenberg Space Force Base

Loading…

Ближайшие Пролёты (ближайшие 24 часа)

TLE

СвежийSource: Space-Track

Эпоха: Sep 14, 2026, 08:17 UTC

1 40610U 95015FH  26257.34533529  .00003086  00000-0  94491-3 0  9994
2 40610  98.6867 299.7501 0026129 133.0685 227.2697 14.42284798592365

Отслеживайте DMSP 5D-2 F13 DEB в реальном времени с AllMySat

Download on the App Store